[[{"header":{"parameterUnit":"m.s-1","parameterCategory":1,"la1":30.2991,"la2":30.254,"lo1":-89.0895,"lo2":-89.0444,"dy":0.0017,"dx":0.0017,"nx":28,"ny":28,"refTime":"2025-04-15T21:00:00:Z","depth":0,"parameterNumber":2,"parameterNumberName":"U-component_of_WINDS"},"data":[0,0,0,0,0,0,0,0,0,0,0,0,0,0,0,0,0,0,0,0,0,0,0,0,0,0,0,0,0,0,0,0,0,0,0,0,0,0,0,0,0,0,0,0,0,0,0,0,0,0,0,0,0,0,0,0,0,0,-3.6064,-3.6065,0,-3.616,-3.6161,-3.6162,-3.617,-3.6169,-3.6168,-3.6167,-3.6265,-3.6269,-3.6272,0,0,0,0,0,0,0,0,0,0,0,0,0,-3.5885,-3.5889,-3.6063,-3.6065,-3.6066,-3.616,-3.6161,-3.6163,-3.617,-3.6169,-3.6168,-3.6166,-3.6264,-3.6268,-3.6272,0,0,0,0,0,0,0,0,0,0,0,0,0,-3.597,-3.589,-3.6063,-3.6081,-3.6084,-3.616,-3.6161,-3.6163,-3.6171,-3.6169,-3.6167,-3.6166,-3.6263,-3.6268,-3.6273,-3.6338,0,0,-3.629,-3.6292,0,0,0,0,0,0,0,0,-3.5966,-3.5977,-3.6077,-3.608,-3.6083,-3.6152,-3.6135,-3.6222,-3.6171,-3.6137,-3.6167,-3.6165,-3.6229,-3.6237,-3.6258,-3.6342,-3.6347,-3.629,-3.6293,-3.6296,-3.6297,0,0,0,0,0,0,0,-3.596,-3.5973,-3.6102,-3.6079,-3.6082,-3.6084,-3.6095,-3.6151,-3.6191,-3.614,-3.6141,-3.6152,-3.623,-3.6253,-3.6261,-3.6348,-3.629,-3.6295,-3.6298,-3.63,-3.6491,-3.6493,0,0,0,0,0,0,-3.5951,-3.5968,-3.6099,-3.6105,-3.6019,-3.6089,-3.61,-3.6131,-3.619,-3.6198,-3.6154,-3.6152,-3.6245,-3.6254,-3.6264,-3.6344,-3.6296,-3.6301,-3.6304,-3.6489,-3.6492,-3.6494,0,0,0,0,0,0,-3.5947,-3.5962,-3.6095,-3.6037,-3.6054,-3.6093,-3.6128,-3.6134,-3.6157,-3.62,-3.6207,-3.617,-3.6244,-3.6256,-3.632,-3.6347,-3.6303,-3.6308,-3.6487,-3.649,-3.6493,-3.6503,0,0,0,0,0,0,-3.5942,-3.5961,-3.5985,-3.6037,-3.6057,-3.6149,-3.613,-3.6137,-3.6166,-3.6166,-3.6217,-3.6224,-3.6243,-3.6312,-3.6325,-3.6354,-3.6312,-3.6485,-3.6489,-3.6492,-3.65,-3.6506,-3.6511,0,0,0,0,0,-3.5935,-3.5984,-3.5987,-3.6002,-3.6089,-3.615,-3.6161,-3.6182,-3.6169,-3.6194,-3.6222,-3.6223,-3.6343,-3.6318,-3.6333,-3.6364,-3.6483,-3.6487,-3.6492,-3.6498,-3.6505,-3.651,0,0,0,0,0,0,-3.5934,-3.5991,-3.5994,-3.6062,-3.6101,-3.6151,-3.6184,-3.6189,-3.6232,-3.623,-3.6254,-3.6266,-3.6328,-3.6353,-3.6324,-3.643,-3.6411,-3.6419,-3.6411,-3.6418,-3.6423,-3.6415,-3.6317,0,0,0,0,0,-3.5942,-3.5987,-3.6035,-3.609,-3.6109,-3.6143,-3.6171,-3.6184,-3.6225,-3.6242,-3.6274,-3.6315,-3.6361,-3.6391,-3.6437,-3.6505,-3.6516,-3.6534,-3.6539,-3.6543,-3.6548,-3.6586,-3.6594,-3.6507,-3.6507,-3.6507,0,0,-3.5958,-3.5995,-3.6022,-3.609,-3.6122,-3.6168,-3.6157,-3.6206,-3.6241,-3.6249,-3.6311,-3.6336,-3.6383,-3.6449,-3.648,-3.6471,-3.6575,-3.6548,-3.6551,-3.6554,-3.6591,-3.6599,-3.6607,-3.651,-3.651,-3.6509,0,0,-3.601,-3.6043,-3.6092,-3.6125,-3.6174,-3.6197,-3.6209,-3.6259,-3.6276,-3.6339,-3.6346,-3.6388,-3.6468,-3.6501,-3.6528,-3.6595,-3.6597,-3.661,-3.6635,-3.6672,-3.6678,-3.6685,-3.6708,-3.6716,-3.6615,-3.6615,-3.6615,0,-3.6024,-3.6094,-3.6117,-3.6166,-3.6196,-3.6207,-3.6257,-3.6288,-3.6349,-3.637,-3.636,-3.6461,-3.6493,-3.6567,-3.6584,-3.6606,-3.662,-3.6602,-3.6676,-3.6682,-3.6688,-3.6711,-3.6719,-3.6616,-3.6616,-3.6616,-3.6616,0,-3.6108,-3.6156,-3.619,-3.6249,-3.6284,-3.6333,-3.6364,-3.6396,-3.6407,-3.643,-3.6494,-3.6534,-3.6587,-3.6606,-3.6617,-3.6682,-3.6675,-3.6671,-3.6652,-3.6697,-3.6718,-3.6727,-3.6618,-3.6617,-3.6617,-3.6617,0,0,-3.6159,-3.6232,-3.6244,-3.6271,-3.6327,-3.6365,-3.6416,-3.6469,-3.6495,-3.6538,-3.6581,-3.6649,-3.6646,-3.6676,-3.6692,-3.6724,-3.6774,-3.6715,-3.6717,-3.6724,-3.6848,-3.685,-3.6859,-3.6777,-3.6779,-3.6781,-3.6843,0,-3.6217,-3.6307,-3.633,-3.6406,-3.6452,-3.6464,-3.6508,-3.6547,-3.6572,-3.6614,-3.6641,-3.6688,-3.668,-3.6699,-3.6732,-3.6761,-3.6799,-3.6757,-3.6816,-3.6818,-3.6802,-3.6871,-3.6873,-3.693,-3.6852,-3.6854,-3.6855,0,-3.6296,-3.634,-3.6421,-3.6472,-3.6492,-3.6531,-3.6582,-3.6622,-3.6667,-3.6683,-3.6718,-3.6731,-3.6784,-3.6764,-3.6838,-3.6809,-3.6835,-3.6854,-3.6856,-3.6861,-3.6837,-3.6875,-3.6949,-3.6957,-3.6868,-3.6867,-3.6866,0,-3.6324,-3.6405,-3.6463,-3.6486,-3.6547,-3.6574,-3.6601,-3.6645,-3.6676,-3.6721,-3.6741,-3.6791,-3.6818,-3.6858,-3.6883,-3.6867,-3.6955,-3.6938,-3.6969,-3.6968,-3.6985,-3.6983,-3.7061,-3.7005,-3.7004,-3.7004,-3.7004,0,-3.6385,-3.6433,-3.6477,-3.6513,-3.6568,-3.6595,-3.6649,-3.6676,-3.6715,-3.6757,-3.6772,-3.681,-3.6843,-3.6886,-3.6907,-3.6965,-3.6978,-3.6991,-3.6996,-3.6989,-3.6987,-3.7005,-3.7001,-3.7007,-3.7006,-3.7006,-3.7005,0,-3.6424,-3.6456,-3.652,-3.6573,-3.6588,-3.6626,-3.6672,-3.6707,-3.6733,-3.6785,-3.6799,-3.6839,-3.6891,-3.6922,-3.6987,-3.7002,-3.7065,-3.7069,-3.705,-3.7051,-3.708,-3.7077,-3.7171,-3.7185,-3.7121,-3.7121,-3.7122,0,-3.646,-3.6498,-3.6555,-3.6584,-3.6611,-3.6658,-3.669,-3.6719,-3.6751,-3.6806,-3.6835,-3.6888,-3.6932,-3.7015,-3.705,-3.71,-3.7104,-3.7134,-3.7112,-3.7104,-3.7103,-3.71,-3.7103,-3.7137,-3.7138,-3.7138,-3.7138,0,-3.652,-3.6534,-3.6579,-3.663,-3.6667,-3.6709,-3.675,-3.6773,-3.6809,-3.6845,-3.6898,-3.6932,-3.7,-3.7052,-3.7106,-3.7134,-3.7142,-3.7146,-3.7155,-3.7147,-3.7134,-3.7141,-3.7058,-3.7143,-3.7142,-3.7142,-3.7142,-3.7142,-3.6558,-3.6592,-3.6638,-3.6688,-3.6722,-3.6761,-3.6797,-3.6828,-3.6873,-3.693,-3.6945,-3.7001,-3.7046,-3.7119,-3.7149,-3.7193,-3.7188,-3.7202,-3.7206,-3.7208,-3.7208,-3.7129,-3.7203,-3.7203,-3.7203,-3.7203,-3.7203,0,-3.6617,-3.6648,-3.6694,-3.6751,-3.6791,-3.6796,-3.6843,-3.6875,-3.6924,-3.6966,-3.701,-3.7071,-3.7123,-3.7163,-3.7215,-3.7243,-3.7249,-3.7256,-3.7253,-3.726,-3.721,-3.7196,-3.7251,-3.7251,-3.7251,-3.7251,-3.7251,-3.7251,-3.6653,-3.6711,-3.6731,-3.6806,-3.6837,-3.6892,-3.6918,-3.6953,-3.6987,-3.7055,-3.7098,-3.7124,-3.7166,-3.7222,-3.7269,-3.728,-3.7298,-3.7305,-3.7316,-3.7268,-3.7263,-3.7258,-3.7245,-3.7309,-3.7309,-3.7361,-3.7361,-3.7362]},{"header":{"parameterUnit":"m.s-1","parameterCategory":1,"la1":30.2991,"la2":30.254,"lo1":-89.0895,"lo2":-89.0444,"dy":0.0017,"dx":0.0017,"nx":28,"ny":28,"refTime":"2025-04-15T21:00:00:Z","depth":0,"parameterNumber":3,"parameterNumberName":"V-component_of_WINDS"},"data":[0,0,0,0,0,0,0,0,0,0,0,0,0,0,0,0,0,0,0,0,0,0,0,0,0,0,0,0,0,0,0,0,0,0,0,0,0,0,0,0,0,0,0,0,0,0,0,0,0,0,0,0,0,0,0,0,0,0,3.997,3.9969,0,3.9934,3.9934,3.9934,3.9928,3.9929,3.9929,3.9929,3.9887,3.9886,3.9884,0,0,0,0,0,0,0,0,0,0,0,0,0,4.0028,4.0027,3.997,3.9969,3.9969,3.9934,3.9934,3.9933,3.9928,3.9929,3.9929,3.993,3.9888,3.9886,3.9884,0,0,0,0,0,0,0,0,0,0,0,0,0,3.9999,4.0027,3.997,3.9962,3.9961,3.9935,3.9934,3.9933,3.9928,3.9929,3.9929,3.993,3.9888,3.9886,3.9884,3.986,0,0,3.9877,3.9876,0,0,0,0,0,0,0,0,4.0,3.9996,3.9964,3.9963,3.9962,3.9937,3.9939,3.9908,3.9928,3.9941,3.9929,3.993,3.9903,3.9899,3.9891,3.9858,3.9856,3.9877,3.9876,3.9875,3.9874,0,0,0,0,0,0,0,4.0002,3.9998,3.9956,3.9963,3.9962,3.9959,3.9956,3.9933,3.9919,3.994,3.9939,3.9935,3.9902,3.9893,3.989,3.9856,3.9877,3.9875,3.9874,3.9873,3.9802,3.9801,0,0,0,0,0,0,4.0007,4.0,3.9957,3.9954,3.9983,3.9958,3.9954,3.9944,3.9919,3.9916,3.9935,3.9935,3.9897,3.9893,3.9889,3.986,3.9875,3.9873,3.9871,3.9802,3.9802,3.9801,0,0,0,0,0,0,4.0008,4.0003,3.9958,3.9977,3.9971,3.9956,3.9945,3.9943,3.9934,3.9916,3.9913,3.9929,3.9897,3.9892,3.9868,3.9859,3.9872,3.987,3.9803,3.9802,3.9801,3.9802,0,0,0,0,0,0,4.001,4.0003,3.9995,3.9977,3.997,3.9939,3.9945,3.9942,3.9931,3.9931,3.991,3.9906,3.9897,3.9871,3.9866,3.9856,3.9868,3.9804,3.9803,3.9802,3.9803,3.9801,3.98,0,0,0,0,0,4.0012,3.9995,3.9995,3.999,3.996,3.9939,3.9935,3.9926,3.9931,3.9922,3.991,3.9907,3.9861,3.9869,3.9863,3.9852,3.9804,3.9803,3.9802,3.9804,3.9802,3.98,0,0,0,0,0,0,4.001,3.9993,3.9992,3.9969,3.9956,3.9938,3.9927,3.9924,3.9908,3.9908,3.9897,3.9892,3.9869,3.9858,3.9867,3.9828,3.9833,3.983,3.9836,3.9834,3.9833,3.9836,3.9866,0,0,0,0,0,4.0008,3.9994,3.9978,3.996,3.9953,3.9941,3.9932,3.9927,3.9911,3.9905,3.9891,3.9875,3.9857,3.9845,3.9827,3.9801,3.9796,3.9791,3.979,3.9789,3.9786,3.9773,3.977,3.9797,3.9797,3.9797,0,0,4.0001,3.999,3.9981,3.9959,3.9948,3.9933,3.9936,3.9919,3.9907,3.9901,3.9879,3.9869,3.9849,3.9825,3.9813,3.9815,3.9778,3.9787,3.9786,3.9785,3.9771,3.9769,3.9766,3.9796,3.9796,3.9796,0,0,3.9982,3.9973,3.9957,3.9946,3.9931,3.9923,3.9919,3.9902,3.9895,3.9873,3.9869,3.9853,3.9822,3.9809,3.9799,3.9776,3.9773,3.9771,3.9763,3.975,3.9748,3.9746,3.9739,3.9736,3.9768,3.9768,3.9768,0,3.9976,3.9955,3.9948,3.9933,3.9923,3.9919,3.9903,3.9892,3.987,3.9863,3.9866,3.9828,3.9814,3.9787,3.9782,3.9774,3.9768,3.9773,3.9749,3.9747,3.9745,3.9738,3.9735,3.9768,3.9768,3.9768,3.9768,0,3.9948,3.9933,3.9922,3.9904,3.9893,3.9876,3.9866,3.9856,3.9852,3.9843,3.9821,3.9805,3.9785,3.9778,3.9772,3.975,3.9752,3.9752,3.9756,3.9743,3.9736,3.9733,3.9768,3.9768,3.9768,3.9768,0,0,3.9926,3.9907,3.9903,3.9895,3.9878,3.9865,3.9848,3.9831,3.9822,3.9807,3.9792,3.9767,3.9768,3.9755,3.9749,3.9737,3.9722,3.9739,3.9738,3.9737,3.9696,3.9696,3.9693,3.972,3.9719,3.9718,3.9698,0,3.9906,3.9878,3.9873,3.9848,3.9834,3.9831,3.9817,3.9804,3.9796,3.9781,3.9771,3.9754,3.9756,3.9749,3.9738,3.9726,3.9713,3.9727,3.9705,3.9704,3.971,3.9689,3.9689,3.967,3.9695,3.9694,3.9694,0,3.9878,3.9865,3.984,3.9826,3.982,3.9807,3.9791,3.9778,3.9763,3.9758,3.9746,3.9741,3.9722,3.9728,3.9702,3.9712,3.9702,3.9695,3.9694,3.9691,3.9698,3.9686,3.9664,3.9661,3.969,3.969,3.969,0,3.9865,3.9842,3.9824,3.9817,3.98,3.9792,3.9784,3.977,3.976,3.9745,3.9738,3.9721,3.9711,3.9697,3.9687,3.9692,3.9662,3.9667,3.9656,3.9657,3.965,3.965,3.9626,3.9643,3.9643,3.9643,3.9643,0,3.9843,3.9828,3.9818,3.9807,3.979,3.9784,3.9766,3.9758,3.9746,3.9732,3.9728,3.9715,3.9703,3.9688,3.968,3.9659,3.9655,3.9649,3.9647,3.965,3.9651,3.9643,3.9644,3.9643,3.9643,3.9643,3.9643,0,3.9826,3.9819,3.98,3.9786,3.9782,3.977,3.9758,3.9747,3.9739,3.9722,3.9718,3.9705,3.9687,3.9677,3.9653,3.9648,3.9626,3.9624,3.9631,3.9631,3.9621,3.9622,3.9591,3.9587,3.9607,3.9607,3.9607,0,3.9812,3.9801,3.9787,3.9779,3.9772,3.9758,3.9749,3.9742,3.9732,3.9715,3.9705,3.9688,3.9674,3.9646,3.9633,3.9616,3.9613,3.9604,3.9611,3.9614,3.9614,3.9615,3.9614,3.9603,3.9602,3.9602,3.9602,0,3.9789,3.9787,3.9774,3.9761,3.9751,3.974,3.9728,3.9721,3.9712,3.9701,3.9684,3.9673,3.9651,3.9634,3.9615,3.9605,3.9602,3.96,3.9597,3.9599,3.9605,3.9602,3.9629,3.9601,3.9601,3.9601,3.9601,3.9601,3.9773,3.9764,3.9753,3.974,3.9731,3.9721,3.971,3.9702,3.9689,3.9672,3.9668,3.965,3.9636,3.9611,3.9601,3.9586,3.9588,3.9583,3.9581,3.958,3.9581,3.9607,3.9583,3.9583,3.9583,3.9583,3.9583,0,3.975,3.9744,3.9732,3.9717,3.9707,3.9707,3.9694,3.9685,3.9671,3.9659,3.9646,3.9626,3.961,3.9597,3.958,3.957,3.9568,3.9566,3.9567,3.9564,3.958,3.9585,3.9568,3.9568,3.9568,3.9568,3.9568,3.9568,3.9737,3.9721,3.9718,3.9697,3.969,3.9675,3.9668,3.9658,3.9648,3.9628,3.9615,3.9608,3.9595,3.9578,3.9562,3.9559,3.9552,3.9551,3.9547,3.9562,3.9563,3.9565,3.9569,3.9549,3.9549,3.9532,3.9532,3.9532]}]]